Regional Weather Roundup
Issued by NWS

Home | Current Version | Previous Version | Text Only | Print | Product List | Glossary Off
Versions: 1 2 3 4 5 6 7 8 9 10 11 12 13 14 15 16 17 18 19 20 21 22 23 24 25 26 27 28 29 30 31 32 33 34 35 36 37 38 39 40 41 42 43 44 45 46 47 48 49 50

000
ASUS43 KLOT 040512
RWRIL

ILLINOIS REGIONAL WEATHER ROUNDUP
NATIONAL WEATHER SERVICE CHICAGO/ROMEOVILLE IL
1100 PM CST SAT DEC 03 2016

NOTE: "FAIR" INDICATES FEW OR NO CLOUDS BELOW 12,000 FEET WITH NO
SIGNIFICANT WEATHER AND/OR OBSTRUCTIONS TO VISIBILITY.

* THESE STATIONS ARE NOT UNDER NWS QUALITY CONTROL. THEY ALSO MAY NOT
  REPORT WEATHER SUCH AS PRECIPITATION OR FOG.

ILZ001-002-007-009-015-016-024-040600-
NORTHWEST ILLINOIS

CITY           SKY/WX    TMP DP  RH WIND       PRES   REMARKS
MOLINE         CLOUDY    35  26  69 SE8       30.24F WCI  29
STERLING*      CLOUDY    33  29  85 SE3       30.27
SAVANNA*       CLOUDY    34  28  79 S7        30.25S WCI  28
$$

ILZ003-004-008-010-011-017-018-040600-
NORTH CENTRAL ILLINOIS

CITY           SKY/WX    TMP DP  RH WIND       PRES   REMARKS
ROCKFORD       CLOUDY    33  28  81 S8        30.28S WCI  26
FREEPORT*      CLOUDY    32  29  86 S6        30.27R WCI  27
ROCHELLE*      CLOUDY    32  29  90 S7        30.27S WCI  26
DE KALB*       CLOUDY    31  28  90 S7        30.27S WCI  24
$$

ILZ005-006-012>014-019>023-040600-
NORTHEAST ILLINOIS

CITY           SKY/WX    TMP DP  RH WIND       PRES   REMARKS
CHICAGO-OHARE  CLOUDY    31  25  78 S6        30.27F WCI  25
CHICAGO-MIDWAY CLOUDY    32  24  72 SW6       30.28S WCI  26
AURORA         PTCLDY    32  27  81 S6        30.27S WCI  26
LANSING*       CLOUDY    29  28  94 S5        30.29R WCI  24
JOLIET*        CLOUDY    32  28  86 CALM      30.29F
WAUKEGAN       CLOUDY    30  24  78 CALM      30.26F
DUPAGE AIRPORT CLOUDY    31  25  78 S5        30.27R WCI  26
KANKAKEE*      CLOUDY    31  28  91 CALM      30.29F
WHEELING       CLOUDY    31  25  78 S6        30.29S WCI  25
MORRIS*        CLOUDY    31  28  85 CALM      30.28S
ROMEOVILLE*    CLOUDY    31  30  96 S3        30.28S
NORTHERLY ISL    N/A     33  24  70 S6          N/A  WCI  28
$$

LMZ740>746-040600-
SOUTHERN LAKE MICHIGAN

STATION/POSITION SKY/WX   TEMP    WIND        PRES    VSBY  WAVE
                          AIR SEA DIR/SP/G                  HT/PER
                          (F)     (DEG/KT/KT) (MB)    (MI)  (FT/S)
SOUTHERN BUOY              35 48  280/  2/  2 1025.1F         1
HARRISON CRIB              35     200/  1/  3   N/A
BURNHAM HARBOR             33     200/  5/  6   N/A
CALUMET HARBOR             32     220/  3/  4 1024.8F
BURNS HARBOR               33     190/  8/ 10 1026.1S
MICHIGAN CITY              33     170/  9/ 11   N/A
$$

ILZ025>027-034>036-040-047-049-050-058-095>099-040600-
WEST-CENTRAL ILLINOIS

CITY           SKY/WX    TMP DP  RH WIND       PRES   REMARKS
QUINCY         CLOUDY    38  34  85 SE13      30.20F WCI  30
GALESBURG*     CLOUDY    33  29  83 E7        30.24S WCI  27
MACOMB*        CLOUDY    35  31  87 SE10      30.25S WCI  27
JACKSONVILLE*  CLOUDY    36  32  85 SE9       30.25S WCI  29
PITTSFIELD*    CLOUDY    38  35  87 E6        30.23F WCI  34
$$

ILZ028>032-037-038-041>044-048-051>054-059>061-040600-
CENTRAL ILLINOIS

CITY           SKY/WX    TMP DP  RH WIND       PRES   REMARKS
PONTIAC        CLOUDY    32  30  94 SE5       30.30R WCI  27
BLOOMINGTON    CLOUDY    31  28  89 E6        30.28S WCI  25
DECATUR        CLOUDY    34  28  79 E9        30.27F WCI  27
PEORIA         CLOUDY    33  28  81 E6        30.27S WCI  28
LACON*         CLOUDY    32  28  83 SE5       30.25F WCI  27
LINCOLN*       CLOUDY    34  31  87 E5        30.28S WCI  30
SPRINGFIELD    CLOUDY    37  31  78 E8        30.27S WCI  31
TAYLORVILLE    CLOUDY    35  31  87 E7        30.27R WCI  29
$$

ILZ033-039-045-046-055>057-062-063-040600-
EAST-CENTRAL ILLINOIS

CITY           SKY/WX    TMP DP  RH WIND       PRES   REMARKS
CHAMPAIGN      CLOUDY    32  27  81 E5        30.28S WCI  27
RANTOUL*       CLOUDY    33  30  90 CALM      30.29R
MATTOON        CLOUDY    34  29  82 E5        30.26F WCI  30
PARIS*         CLOUDY    32  30  93 CALM      30.29F
$$

ILZ079-100>102-040600-
SOUTHWEST ILLINOIS

CITY           SKY/WX    TMP DP  RH WIND       PRES   REMARKS
ALTON          CLOUDY    38  34  84 E3        30.25S
BELLEVILLE     CLOUDY    40  35  83 E3        30.23F
CAHOKIA*       CLOUDY    41  32  70 E7        30.23F
SPARTA*        CLOUDY    39  33  80 CALM      30.24F
$$

ILZ064>066-069>071-074>076-080>082-084>086-088>090-092>094-040600-
SOUTH-CENTRAL ILLINOIS

CITY           SKY/WX    TMP DP  RH WIND       PRES   REMARKS
CARBONDALE     CLOUDY    40  34  79 NE5       30.23F
CAIRO*         LGT RAIN  38  36  92 NE5       30.21S WCI  35
EFFINGHAM*     CLOUDY    37  32  83 NE7       30.27F WCI  31
MARION         CLOUDY    41  34  75 E3        30.23S
CENTRALIA*     CLOUDY    39  34  83 E5        30.23F
SALEM*         CLOUDY    39  32  75 E7        30.24F WCI  34
METROPOLIS*    LGT RAIN  39  36  89 CALM      30.21F
$$

ILZ067-068-072-073-078-083-087-091-040600-
SOUTHEAST ILLINOIS

CITY           SKY/WX    TMP DP  RH WIND       PRES   REMARKS
LAWRENCEVILLE  CLOUDY    37  30  75 NE7       30.27F WCI  32
FLORA*         CLOUDY    39  32  76 NE8       30.26F WCI  34
FAIRFIELD*     CLOUDY    39  33  80 NE5       30.24F
HARRISBURG*    CLOUDY    40  35  81 E5        30.24F
ROBINSON*      CLOUDY    36  31  82 E5        30.29F WCI  32
CARMI*         CLOUDY    39  33  79 NE6       30.23F WCI  35
$$

ABBREVIATIONS USED IN REMARKS
   TC - TEMPERATURE IN CELSIUS
  WCI - WIND CHILL INDEX
   HX - HEAT INDEX
  VSB - VISIBILITY
$$




USA.gov is the U.S. government's official web portal to all federal, state and local government web resources and services.